Time,TemperatureF,DewpointF,PressureIn,WindDirection,WindDirectionDegrees,WindSpeedMPH,WindSpeedGustMPH,Humidity,HourlyPrecipIn,Conditions,Clouds,dailyrainin,SoftwareType,DateUTC
2013-05-02 00:01:00,69.7,20.3,27.38,ESE,113,0.0,0.9,16,0.00,,,0.00,WUHU216HW,2013-05-02 07:01:00,
2013-05-02 00:06:00,69.5,20.3,27.38,ESE,113,0.0,0.7,16,0.00,,,0.00,WUHU216HW,2013-05-02 07:06:00,
2013-05-02 00:11:00,69.5,21.9,27.38,ESE,113,0.0,0.4,17,0.00,,,0.00,WUHU216HW,2013-05-02 07:11:00,
2013-05-02 00:16:00,69.5,21.9,27.38,East,90,0.0,0.4,17,0.00,,,0.00,WUHU216HW,2013-05-02 07:16:00,
2013-05-02 00:21:00,69.3,21.7,27.38,ESE,113,0.4,1.1,17,0.00,,,0.00,WUHU216HW,2013-05-02 07:21:00,
2013-05-02 00:26:00,69.1,21.6,27.38,ESE,113,0.0,1.1,17,0.00,,,0.00,WUHU216HW,2013-05-02 07:26:00,
2013-05-02 00:31:00,68.8,21.3,27.38,ESE,113,0.0,0.9,17,0.00,,,0.00,WUHU216HW,2013-05-02 07:31:00,
2013-05-02 00:36:00,68.6,21.2,27.38,ESE,113,0.4,0.4,17,0.00,,,0.00,WUHU216HW,2013-05-02 07:36:00,
2013-05-02 00:41:00,68.4,21.1,27.38,SE,135,0.0,0.4,17,0.00,,,0.00,WUHU216HW,2013-05-02 07:41:00,
2013-05-02 00:46:00,68.2,20.9,27.38,SE,135,0.4,0.4,17,0.00,,,0.00,WUHU216HW,2013-05-02 07:46:00,
2013-05-02 00:51:00,68.2,20.9,27.38,SE,135,0.2,0.4,17,0.00,,,0.00,WUHU216HW,2013-05-02 07:51:00,
2013-05-02 00:56:00,68.0,20.8,27.37,SE,135,0.4,0.7,17,0.00,,,0.00,WUHU216HW,2013-05-02 07:56:00,
2013-05-02 01:01:00,68.0,20.8,27.37,South,180,0.4,0.9,17,0.00,,,0.00,WUHU216HW,2013-05-02 08:01:00,
2013-05-02 01:06:00,68.0,20.8,27.37,SSW,203,0.0,1.1,17,0.00,,,0.00,WUHU216HW,2013-05-02 08:06:00,
2013-05-02 01:11:00,67.9,20.6,27.37,SSE,158,0.0,1.1,17,0.00,,,0.00,WUHU216HW,2013-05-02 08:11:00,
2013-05-02 01:16:00,67.7,22.1,27.37,SSE,158,0.9,1.3,18,0.00,,,0.00,WUHU216HW,2013-05-02 08:16:00,
2013-05-02 01:21:00,67.5,21.9,27.37,SE,135,0.4,1.3,18,0.00,,,0.00,WUHU216HW,2013-05-02 08:21:00,
2013-05-02 01:26:00,67.3,21.7,27.37,SSE,158,0.4,1.1,18,0.00,,,0.00,WUHU216HW,2013-05-02 08:26:00,
2013-05-02 01:31:00,67.1,21.6,27.37,SE,135,0.2,1.1,18,0.00,,,0.00,WUHU216HW,2013-05-02 08:31:00,
2013-05-02 01:36:00,67.1,21.6,27.37,SE,135,0.0,1.1,18,0.00,,,0.00,WUHU216HW,2013-05-02 08:36:00,
2013-05-02 01:41:00,67.0,21.4,27.37,ESE,113,0.2,1.1,18,0.00,,,0.00,WUHU216HW,2013-05-02 08:41:00,
2013-05-02 01:46:00,66.8,21.2,27.37,SE,135,0.4,1.1,18,0.00,,,0.00,WUHU216HW,2013-05-02 08:46:00,
2013-05-02 01:51:00,66.8,21.2,27.37,SSE,158,0.2,1.1,18,0.00,,,0.00,WUHU216HW,2013-05-02 08:51:00,
2013-05-02 01:56:00,66.8,21.2,27.37,SSE,158,0.4,1.6,18,0.00,,,0.00,WUHU216HW,2013-05-02 08:56:00,
2013-05-02 02:01:00,66.6,21.1,27.37,SE,135,0.4,1.6,18,0.00,,,0.00,WUHU216HW,2013-05-02 09:01:00,
2013-05-02 02:06:00,66.6,21.1,27.37,SSE,158,0.4,1.6,18,0.00,,,0.00,WUHU216HW,2013-05-02 09:06:00,
2013-05-02 02:11:00,66.2,20.8,27.37,SSE,158,0.4,1.6,18,0.00,,,0.00,WUHU216HW,2013-05-02 09:11:00,
2013-05-02 02:16:00,66.1,20.6,27.37,SE,135,0.4,1.3,18,0.00,,,0.00,WUHU216HW,2013-05-02 09:16:00,
2013-05-02 02:21:00,65.9,22.1,27.37,SE,135,1.3,1.8,19,0.00,,,0.00,WUHU216HW,2013-05-02 09:21:00,
2013-05-02 02:26:00,65.9,22.1,27.37,SE,135,0.9,1.8,19,0.00,,,0.00,WUHU216HW,2013-05-02 09:26:00,
2013-05-02 02:31:00,66.1,22.2,27.37,SE,135,0.4,1.6,19,0.00,,,0.00,WUHU216HW,2013-05-02 09:31:00,
2013-05-02 02:36:00,66.2,22.3,27.37,SSE,158,0.4,1.6,19,0.00,,,0.00,WUHU216HW,2013-05-02 09:36:00,
2013-05-02 02:41:00,66.2,22.3,27.37,SE,135,0.9,1.6,19,0.00,,,0.00,WUHU216HW,2013-05-02 09:41:00,
2013-05-02 02:46:00,66.2,22.3,27.38,SSW,203,0.9,1.6,19,0.00,,,0.00,WUHU216HW,2013-05-02 09:46:00,
2013-05-02 02:51:00,66.2,22.3,27.38,SW,225,1.1,1.8,19,0.00,,,0.00,WUHU216HW,2013-05-02 09:51:00,
2013-05-02 02:56:00,66.2,22.3,27.38,SSE,158,0.4,1.8,19,0.00,,,0.00,WUHU216HW,2013-05-02 09:56:00,
2013-05-02 03:01:00,65.9,22.1,27.38,SE,135,0.2,1.8,19,0.00,,,0.00,WUHU216HW,2013-05-02 10:01:00,
2013-05-02 03:06:00,65.9,22.1,27.38,SE,135,1.3,1.8,19,0.00,,,0.00,WUHU216HW,2013-05-02 10:06:00,
2013-05-02 03:11:00,65.7,22.0,27.38,SE,135,0.2,1.3,19,0.00,,,0.00,WUHU216HW,2013-05-02 10:11:00,
2013-05-02 03:16:00,65.5,21.8,27.38,ESE,113,0.4,1.3,19,0.00,,,0.00,WUHU216HW,2013-05-02 10:16:00,
2013-05-02 03:21:00,65.5,21.8,27.38,SE,135,0.0,1.1,19,0.00,,,0.00,WUHU216HW,2013-05-02 10:21:00,
2013-05-02 03:26:00,65.3,21.6,27.38,SE,135,0.2,1.1,19,0.00,,,0.00,WUHU216HW,2013-05-02 10:26:00,
2013-05-02 03:31:00,65.2,21.5,27.39,SE,135,0.0,0.4,19,0.00,,,0.00,WUHU216HW,2013-05-02 10:31:00,
2013-05-02 03:36:00,64.8,21.3,27.39,NNE,23,0.4,1.3,19,0.00,,,0.00,WUHU216HW,2013-05-02 10:36:00,
2013-05-02 03:41:00,64.4,23.5,27.40,NE,45,2.9,3.1,21,0.00,,,0.00,WUHU216HW,2013-05-02 10:41:00,
2013-05-02 03:46:00,64.1,23.2,27.40,ENE,68,0.9,3.1,21,0.00,,,0.00,WUHU216HW,2013-05-02 10:46:00,
2013-05-02 03:51:00,63.7,23.0,27.40,ENE,68,1.8,2.9,21,0.00,,,0.00,WUHU216HW,2013-05-02 10:51:00,
2013-05-02 03:56:00,63.5,22.8,27.40,NE,45,1.8,1.8,21,0.00,,,0.00,WUHU216HW,2013-05-02 10:56:00,
2013-05-02 04:01:00,63.4,22.6,27.40,ENE,68,0.0,2.0,21,0.00,,,0.00,WUHU216HW,2013-05-02 11:01:00,
2013-05-02 04:06:00,63.4,22.6,27.40,ENE,68,0.0,2.0,21,0.00,,,0.00,WUHU216HW,2013-05-02 11:06:00,
2013-05-02 04:11:00,63.5,22.8,27.40,ENE,68,0.0,1.1,21,0.00,,,0.00,WUHU216HW,2013-05-02 11:11:00,
2013-05-02 04:16:00,63.4,22.6,27.40,ENE,68,0.0,0.4,21,0.00,,,0.00,WUHU216HW,2013-05-02 11:16:00,
2013-05-02 04:21:00,63.4,22.6,27.40,ENE,68,1.6,1.6,21,0.00,,,0.00,WUHU216HW,2013-05-02 11:21:00,
2013-05-02 04:26:00,63.2,22.5,27.40,ENE,68,1.3,1.6,21,0.00,,,0.00,WUHU216HW,2013-05-02 11:26:00,
2013-05-02 04:31:00,63.0,23.3,27.40,North,0,2.0,2.5,22,0.00,,,0.00,WUHU216HW,2013-05-02 11:31:00,
2013-05-02 04:36:00,63.0,22.3,27.40,NE,45,1.1,2.5,21,0.00,,,0.00,WUHU216HW,2013-05-02 11:36:00,
2013-05-02 04:41:00,63.0,22.3,27.40,NE,45,1.1,2.0,21,0.00,,,0.00,WUHU216HW,2013-05-02 11:41:00,
2013-05-02 04:46:00,62.8,22.1,27.40,NE,45,0.2,2.2,21,0.00,,,0.00,WUHU216HW,2013-05-02 11:46:00,
2013-05-02 04:51:00,62.6,23.1,27.40,NE,45,0.9,2.2,22,0.00,,,0.00,WUHU216HW,2013-05-02 11:51:00,
2013-05-02 04:56:00,62.5,22.9,27.40,NE,45,0.0,2.2,22,0.00,,,0.00,WUHU216HW,2013-05-02 11:56:00,
2013-05-02 05:01:00,62.3,22.7,27.40,ENE,68,0.4,2.2,22,0.00,,,0.00,WUHU216HW,2013-05-02 12:01:00,
2013-05-02 05:06:00,62.1,22.6,27.40,NE,45,0.9,1.3,22,0.00,,,0.00,WUHU216HW,2013-05-02 12:06:00,
2013-05-02 05:11:00,61.9,21.4,27.41,NE,45,0.4,1.3,21,0.00,,,0.00,WUHU216HW,2013-05-02 12:11:00,
2013-05-02 05:16:00,61.6,21.2,27.41,NE,45,0.2,1.8,21,0.00,,,0.00,WUHU216HW,2013-05-02 12:16:00,
2013-05-02 05:21:00,61.4,21.0,27.41,ENE,68,0.9,1.8,21,0.00,,,0.00,WUHU216HW,2013-05-02 12:21:00,
2013-05-02 05:26:00,61.2,20.9,27.41,ENE,68,0.0,1.1,21,0.00,,,0.00,WUHU216HW,2013-05-02 12:26:00,
2013-05-02 05:31:00,60.8,20.6,27.42,NE,45,0.0,1.6,21,0.00,,,0.00,WUHU216HW,2013-05-02 12:31:00,
2013-05-02 05:36:00,60.5,20.3,27.42,NNE,23,0.0,1.8,21,0.00,,,0.00,WUHU216HW,2013-05-02 12:36:00,
2013-05-02 05:41:00,60.3,20.1,27.42,NE,45,0.2,1.8,21,0.00,,,0.00,WUHU216HW,2013-05-02 12:41:00,
2013-05-02 05:46:00,60.1,20.9,27.42,NE,45,0.0,1.3,22,0.00,,,0.00,WUHU216HW,2013-05-02 12:46:00,
2013-05-02 05:51:00,59.8,20.6,27.43,NE,45,0.0,1.1,22,0.00,,,0.00,WUHU216HW,2013-05-02 12:51:00,
2013-05-02 05:56:00,59.6,20.4,27.43,NNE,23,0.7,2.0,22,0.00,,,0.00,WUHU216HW,2013-05-02 12:56:00,
2013-05-02 06:01:00,59.4,20.3,27.43,NE,45,0.7,2.0,22,0.00,,,0.00,WUHU216HW,2013-05-02 13:01:00,
2013-05-02 06:06:00,59.2,20.1,27.43,NE,45,0.0,1.3,22,0.00,,,0.00,WUHU216HW,2013-05-02 13:06:00,
2013-05-02 06:11:00,59.0,20.0,27.43,NE,45,0.0,0.4,22,0.00,,,0.00,WUHU216HW,2013-05-02 13:11:00,
2013-05-02 06:16:00,58.9,19.8,27.44,WNW,293,0.7,0.7,22,0.00,,,0.00,WUHU216HW,2013-05-02 13:16:00,
2013-05-02 06:21:00,58.7,19.6,27.44,West,270,0.0,0.7,22,0.00,,,0.00,WUHU216HW,2013-05-02 13:21:00,
2013-05-02 06:26:00,58.7,20.6,27.44,NE,45,1.1,1.8,23,0.00,,,0.00,WUHU216HW,2013-05-02 13:26:00,
2013-05-02 06:31:00,58.7,20.6,27.45,NNE,23,0.0,1.8,23,0.00,,,0.00,WUHU216HW,2013-05-02 13:31:00,
2013-05-02 06:36:00,59.0,20.9,27.45,ENE,68,0.4,1.8,23,0.00,,,0.00,WUHU216HW,2013-05-02 13:36:00,
2013-05-02 06:41:00,59.6,21.4,27.45,NNE,23,1.6,2.7,23,0.00,,,0.00,WUHU216HW,2013-05-02 13:41:00,
2013-05-02 06:46:00,60.3,22.1,27.46,NE,45,0.7,2.7,23,0.00,,,0.00,WUHU216HW,2013-05-02 13:46:00,
2013-05-02 06:51:00,61.0,22.6,27.46,ENE,68,1.6,2.7,23,0.00,,,0.00,WUHU216HW,2013-05-02 13:51:00,
2013-05-02 06:56:00,61.6,22.2,27.46,NE,45,0.2,2.7,22,0.00,,,0.00,WUHU216HW,2013-05-02 13:56:00,
2013-05-02 07:01:00,61.9,22.4,27.46,NE,45,0.9,2.7,22,0.00,,,0.00,WUHU216HW,2013-05-02 14:01:00,
2013-05-02 07:06:00,62.3,22.7,27.46,NE,45,2.7,4.0,22,0.00,,,0.00,WUHU216HW,2013-05-02 14:06:00,
2013-05-02 07:11:00,63.7,23.0,27.46,ENE,68,0.4,4.3,21,0.00,,,0.00,WUHU216HW,2013-05-02 14:11:00,
2013-05-02 07:16:00,64.1,20.6,27.46,NNE,23,2.0,4.3,19,0.00,,,0.00,WUHU216HW,2013-05-02 14:16:00,
2013-05-02 07:21:00,64.6,21.1,27.46,NE,45,2.0,4.3,19,0.00,,,0.00,WUHU216HW,2013-05-02 14:21:00,
2013-05-02 07:26:00,65.5,20.2,27.46,North,0,1.8,4.0,18,0.00,,,0.00,WUHU216HW,2013-05-02 14:26:00,
2013-05-02 07:31:00,66.1,20.6,27.46,ENE,68,1.1,3.4,18,0.00,,,0.00,WUHU216HW,2013-05-02 14:31:00,
2013-05-02 07:36:00,66.4,21.0,27.46,ENE,68,1.8,3.1,18,0.00,,,0.00,WUHU216HW,2013-05-02 14:36:00,
2013-05-02 07:41:00,66.8,19.6,27.46,NNE,23,2.0,4.0,17,0.00,,,0.00,WUHU216HW,2013-05-02 14:41:00,
2013-05-02 07:46:00,67.3,18.6,27.46,NNE,23,1.8,4.7,16,0.00,,,0.00,WUHU216HW,2013-05-02 14:46:00,
2013-05-02 07:51:00,68.0,19.2,27.47,ENE,68,2.0,4.7,16,0.00,,,0.00,WUHU216HW,2013-05-02 14:51:00,
2013-05-02 07:56:00,68.4,19.5,27.47,ENE,68,2.5,3.4,16,0.00,,,0.00,WUHU216HW,2013-05-02 14:56:00,
2013-05-02 08:01:00,69.1,18.4,27.47,North,0,1.6,3.8,15,0.00,,,0.00,WUHU216HW,2013-05-02 15:01:00,
2013-05-02 08:06:00,70.0,15.9,27.46,East,90,2.9,3.8,13,0.00,,,0.00,WUHU216HW,2013-05-02 15:06:00,
2013-05-02 08:11:00,70.7,16.4,27.46,ENE,68,0.2,4.0,13,0.00,,,0.00,WUHU216HW,2013-05-02 15:11:00,
2013-05-02 08:16:00,71.1,16.7,27.47,SW,225,0.7,4.0,13,0.00,,,0.00,WUHU216HW,2013-05-02 15:16:00,
2013-05-02 08:21:00,71.3,16.8,27.46,NNE,23,1.1,3.8,13,0.00,,,0.00,WUHU216HW,2013-05-02 15:21:00,
2013-05-02 08:26:00,71.5,16.9,27.46,West,270,1.1,2.9,13,0.00,,,0.00,WUHU216HW,2013-05-02 15:26:00,
2013-05-02 08:31:00,71.8,17.3,27.47,WNW,293,2.2,3.6,13,0.00,,,0.00,WUHU216HW,2013-05-02 15:31:00,
2013-05-02 08:36:00,72.5,16.2,27.47,ENE,68,1.6,4.9,12,0.00,,,0.00,WUHU216HW,2013-05-02 15:36:00,
2013-05-02 08:41:00,73.1,16.7,27.47,WNW,293,2.7,4.9,12,0.00,,,0.00,WUHU216HW,2013-05-02 15:41:00,
2013-05-02 08:46:00,73.4,18.6,27.47,West,270,5.1,5.1,13,0.00,,,0.00,WUHU216HW,2013-05-02 15:46:00,
2013-05-02 08:51:00,73.8,18.9,27.47,West,270,2.5,5.1,13,0.00,,,0.00,WUHU216HW,2013-05-02 15:51:00,
2013-05-02 08:56:00,74.5,17.7,27.47,WSW,248,4.7,5.1,12,0.00,,,0.00,WUHU216HW,2013-05-02 15:56:00,
2013-05-02 09:01:00,75.1,19.8,27.47,West,270,2.0,5.1,13,0.00,,,0.00,WUHU216HW,2013-05-02 16:01:00,
2013-05-02 09:06:00,75.2,19.9,27.47,NNW,338,3.4,5.1,13,0.00,,,0.00,WUHU216HW,2013-05-02 16:06:00,
2013-05-02 09:11:00,75.4,18.4,27.47,NW,315,1.8,3.8,12,0.00,,,0.00,WUHU216HW,2013-05-02 16:11:00,
2013-05-02 09:16:00,75.8,18.7,27.47,WNW,293,1.8,3.8,12,0.00,,,0.00,WUHU216HW,2013-05-02 16:16:00,
2013-05-02 09:21:00,76.3,19.1,27.47,WSW,248,1.3,4.7,12,0.00,,,0.00,WUHU216HW,2013-05-02 16:21:00,
2013-05-02 09:26:00,76.3,19.1,27.48,SSW,203,0.2,4.7,12,0.00,,,0.00,WUHU216HW,2013-05-02 16:26:00,
2013-05-02 09:31:00,76.5,19.3,27.48,WSW,248,1.6,3.6,12,0.00,,,0.00,WUHU216HW,2013-05-02 16:31:00,
2013-05-02 09:36:00,76.7,19.5,27.48,SSW,203,1.8,4.5,12,0.00,,,0.00,WUHU216HW,2013-05-02 16:36:00,
2013-05-02 09:41:00,77.0,19.7,27.48,SE,135,1.6,4.5,12,0.00,,,0.00,WUHU216HW,2013-05-02 16:41:00,
2013-05-02 09:46:00,77.0,19.7,27.48,ENE,68,1.1,3.4,12,0.00,,,0.00,WUHU216HW,2013-05-02 16:46:00,
2013-05-02 09:51:00,77.2,18.2,27.48,WNW,293,1.8,3.4,11,0.00,,,0.00,WUHU216HW,2013-05-02 16:51:00,
2013-05-02 09:56:00,77.8,18.5,27.48,WNW,293,0.9,4.3,11,0.00,,,0.00,WUHU216HW,2013-05-02 16:56:00,
2013-05-02 10:01:00,77.9,18.7,27.48,WSW,248,1.6,4.5,11,0.00,,,0.00,WUHU216HW,2013-05-02 17:01:00,
2013-05-02 10:06:00,78.3,18.9,27.48,WNW,293,2.5,4.9,11,0.00,,,0.00,WUHU216HW,2013-05-02 17:06:00,
2013-05-02 10:11:00,79.2,19.6,27.48,NE,45,1.1,4.9,11,0.00,,,0.00,WUHU216HW,2013-05-02 17:11:00,
2013-05-02 10:16:00,79.6,18.2,27.48,WNW,293,1.1,4.0,10,0.00,,,0.00,WUHU216HW,2013-05-02 17:16:00,
2013-05-02 10:21:00,79.7,18.4,27.48,West,270,4.7,4.7,10,0.00,,,0.00,WUHU216HW,2013-05-02 17:21:00,
2013-05-02 10:26:00,80.5,18.9,27.48,WNW,293,1.3,8.1,9,0.00,,,0.00,WUHU216HW,2013-05-02 17:26:00,
2013-05-02 10:31:00,81.2,19.5,27.48,NW,315,3.6,8.1,8,0.00,,,0.00,WUHU216HW,2013-05-02 17:31:00,
2013-05-02 10:36:00,81.9,20.1,27.47,WNW,293,3.4,5.8,8,0.00,,,0.00,WUHU216HW,2013-05-02 17:36:00,
2013-05-02 10:41:00,82.4,20.5,27.47,ENE,68,3.4,6.0,8,0.00,,,0.00,WUHU216HW,2013-05-02 17:41:00,
2013-05-02 10:46:00,82.8,20.8,27.47,West,270,3.1,6.0,8,0.00,,,0.00,WUHU216HW,2013-05-02 17:46:00,
2013-05-02 10:51:00,83.3,21.2,27.47,SW,225,4.3,6.0,8,0.00,,,0.00,WUHU216HW,2013-05-02 17:51:00,
2013-05-02 10:56:00,83.9,21.5,27.47,WSW,248,3.6,6.0,7,0.00,,,0.00,WUHU216HW,2013-05-02 17:56:00,
2013-05-02 11:01:00,84.2,21.8,27.46,ESE,113,2.0,4.7,8,0.00,,,0.00,WUHU216HW,2013-05-02 18:01:00,
2013-05-02 11:06:00,84.6,22.1,27.46,West,270,2.5,4.7,8,0.00,,,0.00,WUHU216HW,2013-05-02 18:06:00,
2013-05-02 11:11:00,85.0,22.3,27.46,West,270,4.3,5.4,7,0.00,,,0.00,WUHU216HW,2013-05-02 18:11:00,
2013-05-02 11:16:00,85.5,22.8,27.46,WSW,248,4.7,6.0,7,0.00,,,0.00,WUHU216HW,2013-05-02 18:16:00,
2013-05-02 11:21:00,85.7,23.0,27.46,WSW,248,4.0,6.0,7,0.00,,,0.00,WUHU216HW,2013-05-02 18:21:00,
2013-05-02 11:26:00,86.0,23.2,27.46,NE,45,4.0,6.0,7,0.00,,,0.00,WUHU216HW,2013-05-02 18:26:00,
2013-05-02 11:31:00,86.4,23.5,27.46,SW,225,6.9,8.3,7,0.00,,,0.00,WUHU216HW,2013-05-02 18:31:00,
2013-05-02 11:36:00,86.8,23.8,27.45,West,270,4.5,8.3,7,0.00,,,0.00,WUHU216HW,2013-05-02 18:36:00,
2013-05-02 11:41:00,86.9,23.9,27.45,SE,135,3.4,7.6,7,0.00,,,0.00,WUHU216HW,2013-05-02 18:41:00,
2013-05-02 11:46:00,87.3,24.2,27.45,South,180,3.4,7.6,7,0.00,,,0.00,WUHU216HW,2013-05-02 18:46:00,
2013-05-02 11:51:00,87.7,24.5,27.45,WSW,248,2.5,6.9,7,0.00,,,0.00,WUHU216HW,2013-05-02 18:51:00,
2013-05-02 11:56:00,87.8,24.7,27.44,SW,225,4.0,6.9,7,0.00,,,0.00,WUHU216HW,2013-05-02 18:56:00,
2013-05-02 12:01:00,88.0,24.8,27.44,SSW,203,2.5,6.3,7,0.00,,,0.00,WUHU216HW,2013-05-02 19:01:00,
2013-05-02 12:06:00,88.6,25.2,27.44,SSE,158,2.5,5.1,7,0.00,,,0.00,WUHU216HW,2013-05-02 19:06:00,
2013-05-02 12:11:00,88.9,25.4,27.44,WSW,248,1.8,5.6,7,0.00,,,0.00,WUHU216HW,2013-05-02 19:11:00,
2013-05-02 12:16:00,89.3,25.7,27.44,NNE,23,1.6,5.6,7,0.00,,,0.00,WUHU216HW,2013-05-02 19:16:00,
2013-05-02 12:21:00,88.9,25.4,27.43,SSW,203,2.7,4.3,7,0.00,,,0.00,WUHU216HW,2013-05-02 19:21:00,
2013-05-02 12:26:00,89.3,25.7,27.44,WSW,248,5.1,5.6,7,0.00,,,0.00,WUHU216HW,2013-05-02 19:26:00,
2013-05-02 12:31:00,89.6,25.9,27.43,East,90,3.4,5.6,7,0.00,,,0.00,WUHU216HW,2013-05-02 19:31:00,
2013-05-02 12:36:00,90.0,26.2,27.43,NE,45,3.6,5.1,7,0.00,,,0.00,WUHU216HW,2013-05-02 19:36:00,
2013-05-02 12:41:00,90.4,26.5,27.43,West,270,4.3,4.7,6,0.00,,,0.00,WUHU216HW,2013-05-02 19:41:00,
2013-05-02 12:46:00,90.0,26.2,27.43,WNW,293,2.9,5.1,6,0.00,,,0.00,WUHU216HW,2013-05-02 19:46:00,
2013-05-02 12:51:00,90.7,26.8,27.43,SE,135,1.6,5.8,7,0.00,,,0.00,WUHU216HW,2013-05-02 19:51:00,
2013-05-02 12:56:00,90.9,26.9,27.43,West,270,3.8,5.8,6,0.00,,,0.00,WUHU216HW,2013-05-02 19:56:00,
2013-05-02 13:01:00,91.1,27.1,27.43,West,270,1.1,5.1,6,0.00,,,0.00,WUHU216HW,2013-05-02 20:01:00,
2013-05-02 13:06:00,91.3,27.2,27.42,West,270,2.7,5.8,6,0.00,,,0.00,WUHU216HW,2013-05-02 20:06:00,
2013-05-02 13:11:00,92.2,27.9,27.42,West,270,1.3,5.8,6,0.00,,,0.00,WUHU216HW,2013-05-02 20:11:00,
2013-05-02 13:16:00,92.0,27.7,27.42,ENE,68,2.5,4.5,6,0.00,,,0.00,WUHU216HW,2013-05-02 20:16:00,
2013-05-02 13:21:00,92.2,27.9,27.42,NNE,23,3.4,4.9,6,0.00,,,0.00,WUHU216HW,2013-05-02 20:21:00,
2013-05-02 13:26:00,92.3,28.0,27.42,SSE,158,1.6,4.9,6,0.00,,,0.00,WUHU216HW,2013-05-02 20:26:00,
2013-05-02 13:31:00,92.5,28.1,27.42,NNW,338,2.5,3.4,7,0.00,,,0.00,WUHU216HW,2013-05-02 20:31:00,
2013-05-02 13:36:00,93.2,28.6,27.42,North,0,1.6,4.5,6,0.00,,,0.00,WUHU216HW,2013-05-02 20:36:00,
2013-05-02 13:41:00,93.6,28.9,27.41,WNW,293,1.1,4.5,6,0.00,,,0.00,WUHU216HW,2013-05-02 20:41:00,
2013-05-02 13:46:00,93.4,28.8,27.41,NW,315,0.4,3.1,6,0.00,,,0.00,WUHU216HW,2013-05-02 20:46:00,
2013-05-02 13:51:00,93.1,28.5,27.41,West,270,2.5,6.3,6,0.00,,,0.00,WUHU216HW,2013-05-02 20:51:00,
2013-05-02 13:56:00,94.0,29.2,27.40,NE,45,4.7,6.3,6,0.00,,,0.00,WUHU216HW,2013-05-02 20:56:00,
2013-05-02 14:01:00,94.7,29.8,27.40,WSW,248,2.5,5.6,6,0.00,,,0.00,WUHU216HW,2013-05-02 21:01:00,
2013-05-02 14:06:00,93.8,29.1,27.40,SSE,158,1.8,5.4,6,0.00,,,0.00,WUHU216HW,2013-05-02 21:06:00,
2013-05-02 14:11:00,94.0,29.2,27.40,SSE,158,0.4,5.4,7,0.00,,,0.00,WUHU216HW,2013-05-02 21:11:00,
2013-05-02 14:16:00,95.0,30.1,27.40,East,90,2.5,4.7,7,0.00,,,0.00,WUHU216HW,2013-05-02 21:16:00,
2013-05-02 14:21:00,96.1,30.8,27.40,SSE,158,1.6,5.4,7,0.00,,,0.00,WUHU216HW,2013-05-02 21:21:00,
2013-05-02 14:26:00,97.2,31.6,27.40,SW,225,2.0,5.4,6,0.00,,,0.00,WUHU216HW,2013-05-02 21:26:00,
2013-05-02 14:31:00,97.6,31.9,27.39,NE,45,1.6,4.3,6,0.00,,,0.00,WUHU216HW,2013-05-02 21:31:00,
2013-05-02 14:36:00,97.9,32.2,27.39,ENE,68,4.0,6.7,6,0.00,,,0.00,WUHU216HW,2013-05-02 21:36:00,
2013-05-02 14:41:00,97.2,31.6,27.39,WSW,248,1.1,6.7,6,0.00,,,0.00,WUHU216HW,2013-05-02 21:41:00,
2013-05-02 14:46:00,97.0,31.5,27.39,ESE,113,1.1,4.0,6,0.00,,,0.00,WUHU216HW,2013-05-02 21:46:00,
2013-05-02 14:51:00,97.2,31.6,27.39,NW,315,2.9,4.0,6,0.00,,,0.00,WUHU216HW,2013-05-02 21:51:00,
2013-05-02 14:56:00,98.1,32.3,27.38,SSW,203,4.0,5.8,6,0.00,,,0.00,WUHU216HW,2013-05-02 21:56:00,
2013-05-02 15:01:00,97.6,31.9,27.38,West,270,2.2,5.8,6,0.00,,,0.00,WUHU216HW,2013-05-02 22:01:00,
2013-05-02 15:06:00,97.6,31.9,27.38,SW,225,0.4,4.7,6,0.00,,,0.00,WUHU216HW,2013-05-02 22:06:00,
2013-05-02 15:11:00,97.6,31.9,27.38,East,90,1.8,4.0,6,0.00,,,0.00,WUHU216HW,2013-05-02 22:11:00,
2013-05-02 15:16:00,97.7,32.0,27.37,ENE,68,1.6,4.0,6,0.00,,,0.00,WUHU216HW,2013-05-02 22:16:00,
2013-05-02 15:21:00,98.3,32.5,27.37,West,270,2.2,4.3,6,0.00,,,0.00,WUHU216HW,2013-05-02 22:21:00,
2013-05-02 15:26:00,99.7,33.7,27.37,NNE,23,2.5,4.7,6,0.00,,,0.00,WUHU216HW,2013-05-02 22:26:00,
2013-05-02 15:31:00,100.4,34.2,27.37,ESE,113,1.8,4.7,6,0.00,,,0.00,WUHU216HW,2013-05-02 22:31:00,
2013-05-02 15:36:00,101.0,34.6,27.37,ENE,68,1.8,3.4,6,0.00,,,0.00,WUHU216HW,2013-05-02 22:36:00,
2013-05-02 15:41:00,100.8,34.5,27.37,SSW,203,2.5,4.5,6,0.00,,,0.00,WUHU216HW,2013-05-02 22:41:00,
2013-05-02 15:46:00,101.7,35.1,27.37,ENE,68,1.3,4.5,6,0.00,,,0.00,WUHU216HW,2013-05-02 22:46:00,
2013-05-02 15:51:00,102.6,35.7,27.36,WSW,248,4.5,4.5,6,0.00,,,0.00,WUHU216HW,2013-05-02 22:51:00,
2013-05-02 15:56:00,103.3,36.4,27.36,ESE,113,4.0,4.5,6,0.00,,,0.00,WUHU216HW,2013-05-02 22:56:00,
2013-05-02 16:01:00,103.7,36.6,27.36,West,270,2.7,5.4,6,0.00,,,0.00,WUHU216HW,2013-05-02 23:01:00,
2013-05-02 16:06:00,103.3,36.4,27.36,West,270,2.2,5.4,5,0.00,,,0.00,WUHU216HW,2013-05-02 23:06:00,
2013-05-02 16:11:00,102.6,35.7,27.36,West,270,3.1,4.0,5,0.00,,,0.00,WUHU216HW,2013-05-02 23:11:00,
2013-05-02 16:16:00,103.0,36.0,27.36,West,270,4.5,4.5,5,0.00,,,0.00,WUHU216HW,2013-05-02 23:16:00,
2013-05-02 16:21:00,103.5,36.5,27.36,North,0,3.1,4.5,5,0.00,,,0.00,WUHU216HW,2013-05-02 23:21:00,
2013-05-02 16:26:00,104.2,37.0,27.36,SE,135,1.3,3.4,5,0.00,,,0.00,WUHU216HW,2013-05-02 23:26:00,
2013-05-02 16:31:00,104.8,37.5,27.36,ENE,68,1.3,3.8,5,0.00,,,0.00,WUHU216HW,2013-05-02 23:31:00,
2013-05-02 16:36:00,105.3,37.8,27.36,SSE,158,0.9,3.8,5,0.00,,,0.00,WUHU216HW,2013-05-02 23:36:00,
2013-05-02 16:41:00,105.7,38.1,27.36,ENE,68,1.1,2.9,5,0.00,,,0.00,WUHU216HW,2013-05-02 23:41:00,
2013-05-02 16:46:00,105.3,37.8,27.36,West,270,2.5,3.6,5,0.00,,,0.00,WUHU216HW,2013-05-02 23:46:00,
2013-05-02 16:51:00,105.1,37.6,27.36,NW,315,2.2,3.6,5,0.00,,,0.00,WUHU216HW,2013-05-02 23:51:00,
2013-05-02 16:56:00,105.1,37.6,27.36,WSW,248,2.2,3.4,5,0.00,,,0.00,WUHU216HW,2013-05-02 23:56:00,
2013-05-02 17:01:00,104.9,37.5,27.36,WSW,248,2.9,4.3,5,0.00,,,0.00,WUHU216HW,2013-05-03 00:01:00,
2013-05-02 17:06:00,104.8,37.5,27.36,West,270,1.8,4.7,5,0.00,,,0.00,WUHU216HW,2013-05-03 00:06:00,
2013-05-02 17:11:00,103.1,36.2,27.36,SSW,203,2.7,5.6,5,0.00,,,0.00,WUHU216HW,2013-05-03 00:11:00,
2013-05-02 17:16:00,103.0,36.0,27.36,ESE,113,2.5,5.6,5,0.00,,,0.00,WUHU216HW,2013-05-03 00:16:00,
2013-05-02 17:21:00,103.0,36.0,27.36,WSW,248,3.1,3.8,5,0.00,,,0.00,WUHU216HW,2013-05-03 00:21:00,
2013-05-02 17:26:00,102.4,35.7,27.35,SW,225,5.1,6.3,5,0.00,,,0.00,WUHU216HW,2013-05-03 00:26:00,
2013-05-02 17:31:00,101.0,34.6,27.36,WSW,248,2.7,6.3,5,0.00,,,0.00,WUHU216HW,2013-05-03 00:31:00,
2013-05-02 17:36:00,100.4,34.2,27.36,ESE,113,1.8,5.6,5,0.00,,,0.00,WUHU216HW,2013-05-03 00:36:00,
2013-05-02 17:41:00,99.9,33.8,27.36,ENE,68,0.9,4.3,5,0.00,,,0.00,WUHU216HW,2013-05-03 00:41:00,
2013-05-02 17:46:00,99.4,33.3,27.36,NNW,338,1.8,3.4,5,0.00,,,0.00,WUHU216HW,2013-05-03 00:46:00,
2013-05-02 17:51:00,97.9,32.2,27.36,ENE,68,1.8,5.1,5,0.00,,,0.00,WUHU216HW,2013-05-03 00:51:00,
2013-05-02 17:56:00,96.5,31.1,27.36,NE,45,2.0,5.1,6,0.00,,,0.00,WUHU216HW,2013-05-03 00:56:00,
2013-05-02 18:01:00,95.0,30.1,27.36,East,90,6.5,6.5,6,0.00,,,0.00,WUHU216HW,2013-05-03 01:01:00,
2013-05-02 18:06:00,93.6,28.9,27.36,NNE,23,4.0,6.9,6,0.00,,,0.00,WUHU216HW,2013-05-03 01:06:00,
2013-05-02 18:11:00,92.5,28.1,27.36,North,0,4.3,8.1,6,0.00,,,0.00,WUHU216HW,2013-05-03 01:11:00,
2013-05-02 18:16:00,91.4,27.4,27.36,ENE,68,2.5,8.1,7,0.00,,,0.00,WUHU216HW,2013-05-03 01:16:00,
2013-05-02 18:21:00,90.5,26.6,27.36,East,90,5.8,9.2,7,0.00,,,0.00,WUHU216HW,2013-05-03 01:21:00,
2013-05-02 18:26:00,89.6,25.9,27.37,ENE,68,4.0,9.2,7,0.00,,,0.00,WUHU216HW,2013-05-03 01:26:00,
2013-05-02 18:31:00,88.9,25.4,27.36,NE,45,5.4,8.1,7,0.00,,,0.00,WUHU216HW,2013-05-03 01:31:00,
2013-05-02 18:36:00,88.2,24.9,27.36,NNW,338,6.9,6.9,7,0.00,,,0.00,WUHU216HW,2013-05-03 01:36:00,
2013-05-02 18:41:00,87.7,24.5,27.36,NNE,23,2.5,8.5,7,0.00,,,0.00,WUHU216HW,2013-05-03 01:41:00,
2013-05-02 18:46:00,87.1,24.1,27.37,ENE,68,6.5,8.5,8,0.00,,,0.00,WUHU216HW,2013-05-03 01:46:00,
2013-05-02 18:51:00,86.4,23.5,27.37,NNE,23,2.5,6.9,8,0.00,,,0.00,WUHU216HW,2013-05-03 01:51:00,
2013-05-02 18:56:00,85.9,23.0,27.37,NNE,23,3.4,6.9,8,0.00,,,0.00,WUHU216HW,2013-05-03 01:56:00,
2013-05-02 19:01:00,85.3,22.7,27.37,NE,45,2.5,6.0,8,0.00,,,0.00,WUHU216HW,2013-05-03 02:01:00,
2013-05-02 19:06:00,84.8,22.2,27.37,East,90,2.5,5.4,8,0.00,,,0.00,WUHU216HW,2013-05-03 02:06:00,
2013-05-02 19:11:00,84.2,21.8,27.37,ENE,68,1.1,5.8,8,0.00,,,0.00,WUHU216HW,2013-05-03 02:11:00,
2013-05-02 19:16:00,83.9,21.5,27.37,NNE,23,1.3,5.8,8,0.00,,,0.00,WUHU216HW,2013-05-03 02:16:00,
2013-05-02 19:21:00,83.3,21.2,27.37,ENE,68,2.5,4.3,8,0.00,,,0.00,WUHU216HW,2013-05-03 02:21:00,
2013-05-02 19:26:00,83.0,20.9,27.38,SE,135,1.1,4.3,8,0.00,,,0.00,WUHU216HW,2013-05-03 02:26:00,
2013-05-02 19:31:00,82.4,20.5,27.38,East,90,1.1,3.8,8,0.00,,,0.00,WUHU216HW,2013-05-03 02:31:00,
2013-05-02 19:36:00,82.1,20.3,27.38,NE,45,0.4,2.5,9,0.00,,,0.00,WUHU216HW,2013-05-03 02:36:00,
2013-05-02 19:41:00,81.5,19.8,27.38,ENE,68,0.0,1.8,10,0.00,,,0.00,WUHU216HW,2013-05-03 02:41:00,
2013-05-02 19:46:00,81.0,19.4,27.38,SE,135,1.1,2.2,10,0.00,,,0.00,WUHU216HW,2013-05-03 02:46:00,
2013-05-02 19:51:00,80.6,19.1,27.38,ENE,68,1.3,2.2,10,0.00,,,0.00,WUHU216HW,2013-05-03 02:51:00,
2013-05-02 19:56:00,80.3,18.8,27.38,NE,45,1.3,4.7,10,0.00,,,0.00,WUHU216HW,2013-05-03 02:56:00,
2013-05-02 20:01:00,80.1,18.6,27.38,NNE,23,2.5,4.7,10,0.00,,,0.00,WUHU216HW,2013-05-03 03:01:00,
2013-05-02 20:06:00,79.7,18.4,27.38,NE,45,1.6,4.0,10,0.00,,,0.00,WUHU216HW,2013-05-03 03:06:00,
2013-05-02 20:11:00,79.4,18.1,27.38,NNE,23,1.8,3.4,10,0.00,,,0.00,WUHU216HW,2013-05-03 03:11:00,
2013-05-02 20:16:00,79.0,17.8,27.38,ENE,68,2.5,3.4,10,0.00,,,0.00,WUHU216HW,2013-05-03 03:16:00,
2013-05-02 20:21:00,78.8,17.6,27.39,NNE,23,2.2,3.8,10,0.00,,,0.00,WUHU216HW,2013-05-03 03:21:00,
2013-05-02 20:26:00,78.5,17.4,27.39,NE,45,2.7,5.4,10,0.00,,,0.00,WUHU216HW,2013-05-03 03:26:00,
2013-05-02 20:31:00,78.3,17.3,27.39,NE,45,3.1,5.4,10,0.00,,,0.00,WUHU216HW,2013-05-03 03:31:00,
2013-05-02 20:36:00,77.9,17.0,27.39,NE,45,1.6,4.3,10,0.00,,,0.00,WUHU216HW,2013-05-03 03:36:00,
2013-05-02 20:41:00,77.6,16.7,27.39,NE,45,3.6,4.5,10,0.00,,,0.00,WUHU216HW,2013-05-03 03:41:00,
2013-05-02 20:46:00,77.4,16.7,27.40,NE,45,0.7,4.5,10,0.00,,,0.00,WUHU216HW,2013-05-03 03:46:00,
2013-05-02 20:51:00,77.0,16.4,27.40,NNE,23,2.5,3.8,10,0.00,,,0.00,WUHU216HW,2013-05-03 03:51:00,
2013-05-02 20:56:00,76.9,16.2,27.40,ENE,68,3.1,4.7,10,0.00,,,0.00,WUHU216HW,2013-05-03 03:56:00,
2013-05-02 21:01:00,76.7,16.1,27.40,NE,45,3.1,4.7,10,0.00,,,0.00,WUHU216HW,2013-05-03 04:01:00,
2013-05-02 21:06:00,76.5,15.9,27.40,North,0,3.6,6.9,10,0.00,,,0.00,WUHU216HW,2013-05-03 04:06:00,
2013-05-02 21:11:00,76.3,15.9,27.40,ENE,68,1.8,6.9,10,0.00,,,0.00,WUHU216HW,2013-05-03 04:11:00,
2013-05-02 21:16:00,76.3,15.9,27.40,NE,45,4.0,5.4,10,0.00,,,0.00,WUHU216HW,2013-05-03 04:16:00,
2013-05-02 21:21:00,76.3,15.9,27.41,North,0,1.8,5.4,10,0.00,,,0.00,WUHU216HW,2013-05-03 04:21:00,
2013-05-02 21:26:00,76.1,17.3,27.41,NE,45,3.4,6.5,11,0.00,,,0.00,WUHU216HW,2013-05-03 04:26:00,
2013-05-02 21:31:00,76.0,17.2,27.41,NNE,23,4.7,6.5,11,0.00,,,0.00,WUHU216HW,2013-05-03 04:31:00,
2013-05-02 21:36:00,76.0,18.8,27.42,ENE,68,6.0,7.2,12,0.00,,,0.00,WUHU216HW,2013-05-03 04:36:00,
2013-05-02 21:41:00,75.8,18.7,27.42,ENE,68,4.7,7.2,12,0.00,,,0.00,WUHU216HW,2013-05-03 04:41:00,
2013-05-02 21:46:00,75.4,20.1,27.42,NE,45,5.8,8.5,13,0.00,,,0.00,WUHU216HW,2013-05-03 04:46:00,
2013-05-02 21:51:00,75.2,21.6,27.42,ENE,68,6.3,8.5,14,0.00,,,0.00,WUHU216HW,2013-05-03 04:51:00,
2013-05-02 21:56:00,74.9,23.0,27.42,NE,45,11.4,11.4,15,0.00,,,0.00,WUHU216HW,2013-05-03 04:56:00,
2013-05-02 22:01:00,74.7,22.9,27.42,North,0,8.3,11.4,15,0.00,,,0.00,WUHU216HW,2013-05-03 05:01:00,
2013-05-02 22:06:00,74.5,22.7,27.42,ESE,113,5.4,11.4,15,0.00,,,0.00,WUHU216HW,2013-05-03 05:06:00,
2013-05-02 22:11:00,74.2,22.4,27.43,NNE,23,2.5,10.1,15,0.00,,,0.00,WUHU216HW,2013-05-03 05:11:00,
2013-05-02 22:16:00,73.8,22.1,27.42,NNE,23,9.2,9.8,15,0.00,,,0.00,WUHU216HW,2013-05-03 05:16:00,
2013-05-02 22:21:00,73.6,22.0,27.43,NE,45,7.6,10.5,15,0.00,,,0.00,WUHU216HW,2013-05-03 05:21:00,
2013-05-02 22:26:00,73.4,21.9,27.43,NE,45,2.5,10.5,15,0.00,,,0.00,WUHU216HW,2013-05-03 05:26:00,
2013-05-02 22:31:00,73.3,23.3,27.43,NE,45,12.1,12.1,16,0.00,,,0.00,WUHU216HW,2013-05-03 05:31:00,
2013-05-02 22:36:00,72.9,23.0,27.43,ENE,68,7.4,12.1,16,0.00,,,0.00,WUHU216HW,2013-05-03 05:36:00,
2013-05-02 22:41:00,72.4,22.6,27.43,NE,45,6.9,13.4,16,0.00,,,0.00,WUHU216HW,2013-05-03 05:41:00,
2013-05-02 22:46:00,72.2,22.4,27.43,NNE,23,8.5,13.4,16,0.00,,,0.00,WUHU216HW,2013-05-03 05:46:00,
2013-05-02 22:51:00,71.8,22.2,27.43,NNE,23,5.6,13.4,16,0.00,,,0.00,WUHU216HW,2013-05-03 05:51:00,
2013-05-02 22:56:00,71.6,23.6,27.43,ESE,113,7.8,11.4,17,0.00,,,0.00,WUHU216HW,2013-05-03 05:56:00,
2013-05-02 23:01:00,71.3,23.3,27.43,ENE,68,11.4,11.4,17,0.00,,,0.00,WUHU216HW,2013-05-03 06:01:00,
2013-05-02 23:06:00,71.1,23.1,27.44,NNW,338,8.1,11.4,17,0.00,,,0.00,WUHU216HW,2013-05-03 06:06:00,
2013-05-02 23:11:00,70.9,23.1,27.44,NW,315,8.3,11.4,17,0.00,,,0.00,WUHU216HW,2013-05-03 06:11:00,
2013-05-02 23:16:00,70.7,22.9,27.44,NE,45,5.6,10.5,17,0.00,,,0.00,WUHU216HW,2013-05-03 06:16:00,
2013-05-02 23:21:00,70.4,22.6,27.44,NE,45,10.3,10.5,17,0.00,,,0.00,WUHU216HW,2013-05-03 06:21:00,
2013-05-02 23:26:00,70.2,22.4,27.44,NE,45,6.9,10.3,17,0.00,,,0.00,WUHU216HW,2013-05-03 06:26:00,
2013-05-02 23:31:00,70.0,22.3,27.44,NE,45,12.1,12.8,17,0.00,,,0.00,WUHU216HW,2013-05-03 06:31:00,
2013-05-02 23:36:00,69.8,22.1,27.44,NE,45,6.7,12.8,17,0.00,,,0.00,WUHU216HW,2013-05-03 06:36:00,
2013-05-02 23:41:00,69.7,22.0,27.44,NE,45,9.8,12.8,17,0.00,,,0.00,WUHU216HW,2013-05-03 06:41:00,
2013-05-02 23:46:00,69.5,23.5,27.44,NNE,23,7.2,12.8,18,0.00,,,0.00,WUHU216HW,2013-05-03 06:46:00,
2013-05-02 23:51:00,69.1,23.2,27.44,NNE,23,6.9,11.4,18,0.00,,,0.00,WUHU216HW,2013-05-03 06:51:00,
2013-05-02 23:56:00,69.1,23.2,27.44,North,0,8.1,13.6,18,0.00,,,0.00,WUHU216HW,2013-05-03 06:56:00,